User: anonymous   Login
Location: Unspecified
(0.0000°N, 0.0000°E)
Time: 02:05:28
(UTC+00:00)
Language:

NOAA 17 - Orbit

View from above orbital plane
View from above orbital plane
View from above satellite
View from above satellite

Ground track
Ground track

The orbit data is extracted from the following two-line orbital elements,

1 27453U 02032A   16148.56054580  .00000059  00000-0  42773-4 0  9992
2 27453  98.3816 123.2135 0010505 248.0331 111.9733 14.24945888723849
Epoch (UTC): 27 May 2016 13:27:11
Eccentricity: 0.0010505
inclination: 98.3816°
perigee height: 801 km
apogee height: 816 km
right ascension of ascending node: 123.2135°
argument of perigee: 248.0331°
revolutions per day: 14.24945888
mean anomaly at epoch: 111.9733°
orbit number at epoch: 72384

The dashed part of the orbit path shows where the satellite is in the earth's shadow,  

DLR